{"data":{"norad_id":53264,"intl_designator":"2022-086Y","name":"STARLINK-3950","alt_names":[],"object_type":"PAYLOAD","status":"ACTIVE","operator":null,"country":"US","launch_date":"2022-07-24","launch_site_code":"AFETR","launch_vehicle":null,"mission":null,"orbit_class":"UNKNOWN","rcs_meters":null,"size_class":null,"mass_kg":null,"dimensions":null,"purposes":["comms"],"wikipedia_slug":null,"has_3d_model":false,"image_url":null,"decayed_at":null,"tle_current":{"epoch":"2026-09-20T01:43:37.388064Z","epoch_age_seconds":112382,"freshness":"FRESH","line1":"1 53264U 22086Y   26263.07196051  .00005027  00000+0  15996-3 0  9992","line2":"2 53264  53.1613  28.0568 0000745  74.4938 285.6146 15.34366941230594","mean_motion":15.34366941,"eccentricity":7.45e-5,"inclination_deg":53.1613,"raan_deg":28.0568,"arg_perigee_deg":74.4938,"mean_anomaly_deg":285.6146,"bstar":0.00015996,"rev_number":23059,"period_min":93.849780096377,"perigee_km":462.2918503679,"apogee_km":463.31115020444,"semimajor_km":6840.9385002862,"source":"CELESTRAK","updated_at":"2026-09-20T09:00:40.216672Z"}}}